Location: Curupao
(10.4996°N, 66.6442°W)
Time: 11:24:27
(UTC+00:00)

Cosmos 990 Rocket - Pass Details

Date: 23 May 2024
Orbit: 745 x 765 km, 74.0° (Epoch: 20 June)

Event Time Altitude Azimuth Distance (km) Brightness Sun altitude
Exits shadow 08:44:45 26° 205° (SSW) 1,459 5.0 -18.6°
Maximum altitude 08:47:40 70° 282° (WNW) 802 3.9 -18.0°
Drops below altitude 10° 08:52:48 10° 7° (N) 2,269 6.9 -16.8°
Sets 08:55:10 0° 9° (N) 3,190 7.7 -16.3°
